Torna al catalogo

NOAA 16 DEB

AttivoSSO
NORAD 41097·DEBRIS·🇺🇸 United States

Lanciato Sep 21, 2000 da Vandenberg Space Force Base

Loading…

Prossimi Passaggi (prossime 24 ore)

TLE

AggiornatoSource: Space-Track

Epoca: Sep 14, 2026, 08:29 UTC

1 41097U 00055BG  26257.35348778  .00001219  00000-0  80355-3 0  9995
2 41097  98.9140 215.7843 0089321 276.9197  82.1814 14.01753879548521

Traccia NOAA 16 DEB in tempo reale con AllMySat

Download on the App Store